Location: Arbon
(43.0005°N, 0.7472°E)
Time: 01:48:34
(UTC+00:00)

Cosmos 2360 Rocket - Pass Details

Date: 07 August 2020
Orbit: 833 x 845 km, 71.0° (Epoch: 19 September)

Event Time Altitude Azimuth Distance (km) Brightness Sun altitude
Rises 00:27:47 0° 327° (NNW) 3,413 6.0 -30.4°
Reaches altitude 10° 00:30:25 10° 319° (NW) 2,472 5.1 -30.3°
Enters shadow 00:33:47 29° 289° (WNW) 1,517 3.5 -30.2°
